QPF
0.00 0.00 0.00 0.00 0.00 0.00 0.00 0.00 0.00 0.01 0.01 0.01 0.01 0.00 0.00 0.00 0.00 0.00 0.00 0.00 0.00 0.00 0.00 0.00 0.00 0.01 0.02 0.02 0.03 0.04 0.05 0.05 0.03 0.02 0.01 0.04 0.04 0.03 0.03 0.04 0.02 0.02 0.01 0.01
0.00 0.00 0.00 0.00 0.00 0.00 0.00 0.00 0.00 0.01 0.01 0.00 0.00 0.00 0.00 0.00 0.00 0.00 0.00 0.00 0.00 0.00 0.00 0.00 0.00 0.00 0.00 0.00 0.01 0.01 0.02 0.03 0.04 0.04 0.04 0.06 0.07 0.07 0.07 0.06 0.05 0.05 0.02 0.02
0.00 0.00 0.00 0.00 0.00 0.00 0.00 0.00 0.00 0.00 0.00 0.00 0.00 0.00 0.00 0.00 0.00 0.00 0.00 0.00 0.00 0.00 0.00 0.00 0.00 0.00 0.00 0.01 0.01 0.01 0.01 0.02 0.03 0.07 0.21 0.38 0.45 0.36 0.25 0.16 0.13 0.10 0.06 0.05
0.00 0.00 0.00 0.00 0.00 0.00 0.00 0.00 0.00 0.00 0.00 0.00 0.00 0.00 0.00 0.00 0.00 0.00 0.00 0.00 0.00 0.00 0.00 0.00 0.00 0.00 0.00 0.01 0.01 0.01 0.01 0.02 0.03 0.11 0.32 0.56 0.64 0.55 0.44 0.33 0.23 0.16 0.10 0.08
0.00 0.00 0.00 0.00 0.00 0.00 0.00 0.00 0.00 0.00 0.00 0.00 0.00 0.01 0.01 0.03 0.04 0.06 0.04 0.01 0.00 0.00 0.00 0.00 0.00 0.00 0.01 0.01 0.01 0.02 0.03 0.04 0.05 0.12 0.31 0.52 0.64 0.64 0.60 0.49 0.38 0.28 0.18 0.13
0.00 0.00 0.00 0.00 0.00 0.00 0.00 0.00 0.00 0.00 0.00 0.00 0.00 0.02 0.08 0.13 0.12 0.13 0.09 0.04 0.01 0.00 0.00 0.00 0.00 0.00 0.00 0.01 0.02 0.03 0.06 0.06 0.08 0.15 0.26 0.40 0.52 0.59 0.64 0.61 0.49 0.34 0.23 0.18
0.00 0.00 0.00 0.00 0.00 0.00 0.00 0.00 0.00 0.00 0.01 0.01 0.02 0.06 0.17 0.15 0.11 0.10 0.08 0.04 0.01 0.00 0.00 0.00 0.00 0.00 0.01 0.01 0.02 0.05 0.09 0.10 0.11 0.15 0.23 0.31 0.42 0.51 0.56 0.52 0.44 0.33 0.24 0.20
0.00 0.00 0.00 0.00 0.00 0.00 0.00 0.00 0.00 0.00 0.01 0.02 0.05 0.16 0.27 0.21 0.12 0.07 0.04 0.02 0.01 0.01 0.01 0.01 0.01 0.01 0.02 0.03 0.04 0.07 0.11 0.14 0.14 0.18 0.24 0.26 0.31 0.37 0.40 0.37 0.33 0.27 0.22 0.18
0.00 0.00 0.00 0.00 0.00 0.00 0.00 0.00 0.00 0.00 0.00 0.01 0.04 0.14 0.17 0.14 0.09 0.05 0.03 0.02 0.01 0.03 0.04 0.04 0.04 0.04 0.04 0.05 0.06 0.09 0.14 0.19 0.21 0.23 0.23 0.24 0.22 0.23 0.24 0.25 0.24 0.22 0.18 0.16
0.00 0.00 0.00 0.00 0.00 0.00 0.00 0.00 0.01 0.02 0.02 0.03 0.05 0.11 0.09 0.05 0.03 0.03 0.02 0.02 0.04 0.08 0.10 0.11 0.09 0.07 0.09 0.10 0.13 0.14 0.17 0.20 0.22 0.24 0.25 0.24 0.22 0.21 0.22 0.24 0.25 0.23 0.20 0.18
0.00 0.00 0.00 0.00 0.00 0.00 0.00 0.00 0.01 0.02 0.03 0.06 0.10 0.12 0.08 0.07 0.08 0.08 0.07 0.08 0.11 0.15 0.17 0.21 0.20 0.15 0.16 0.17 0.21 0.23 0.23 0.23 0.21 0.20 0.21 0.22 0.22 0.22 0.23 0.25 0.24 0.20 0.17 0.16
0.00 0.00 0.00 0.00 0.00 0.00 0.00 0.01 0.01 0.04 0.05 0.06 0.10 0.14 0.14 0.16 0.19 0.22 0.24 0.26 0.31 0.31 0.29 0.32 0.33 0.34 0.32 0.28 0.27 0.27 0.24 0.20 0.18 0.16 0.15 0.14 0.15 0.16 0.20 0.21 0.20 0.15 0.12 0.10
0.00 0.00 0.00 0.00 0.00 0.00 0.00 0.01 0.01 0.03 0.05 0.07 0.13 0.18 0.21 0.25 0.29 0.35 0.41 0.45 0.45 0.40 0.37 0.38 0.37 0.39 0.41 0.41 0.40 0.36 0.28 0.24 0.21 0.20 0.20 0.21 0.20 0.19 0.19 0.18 0.16 0.10 0.08 0.06
0.00 0.00 0.00 0.00 0.00 0.00 0.00 0.00 0.00 0.01 0.03 0.07 0.16 0.26 0.31 0.34 0.40 0.41 0.43 0.44 0.38 0.30 0.26 0.23 0.21 0.23 0.28 0.32 0.34 0.33 0.27 0.25 0.25 0.24 0.23 0.24 0.23 0.19 0.17 0.14 0.10 0.08 0.06 0.05
0.00 0.00 0.00 0.00 0.00 0.00 0.00 0.00 0.00 0.01 0.01 0.05 0.10 0.16 0.22 0.26 0.31 0.31 0.28 0.23 0.18 0.13 0.09 0.08 0.07 0.09 0.12 0.15 0.16 0.16 0.17 0.19 0.20 0.19 0.16 0.15 0.15 0.14 0.13 0.13 0.11 0.08 0.06 0.04
0.00 0.00 0.00 0.00 0.00 0.00 0.00 0.00 0.00 0.00 0.01 0.02 0.04 0.06 0.09 0.12 0.15 0.15 0.11 0.07 0.06 0.05 0.02 0.01 0.01 0.02 0.02 0.02 0.04 0.05 0.06 0.08 0.09 0.09 0.09 0.09 0.09 0.09 0.10 0.10 0.09 0.07 0.06 0.05
0.00 0.00 0.00 0.00 0.00 0.00 0.00 0.00 0.00 0.00 0.00 0.01 0.02 0.02 0.03 0.04 0.05 0.05 0.05 0.05 0.04 0.02 0.01 0.00 0.00 0.00 0.00 0.00 0.00 0.00 0.01 0.01 0.02 0.01 0.01 0.02 0.02 0.03 0.02 0.02 0.03 0.04 0.04 0.03
0.00 0.00 0.00 0.00 0.00 0.00 0.00 0.00 0.00 0.00 0.00 0.00 0.00 0.01 0.00 0.01 0.01 0.01 0.01 0.02 0.02 0.01 0.01 0.00 0.00 0.00 0.00 0.00 0.00 0.00 0.00 0.00 0.00 0.00 0.00 0.00 0.00 0.01 0.01 0.00 0.00 0.01 0.01 0.01
0.00 0.00 0.00 0.00 0.00 0.00 0.00 0.00 0.00 0.00 0.00 0.00 0.00 0.00 0.00 0.00 0.00 0.00 0.00 0.00 0.01 0.00 0.00 0.00 0.00 0.00 0.00 0.00 0.00 0.00 0.00 0.00 0.00 0.00 0.00 0.00 0.00 0.00 0.00 0.00 0.00 0.00 0.00 0.00
0.00 0.00 0.00 0.00 0.00 0.00 0.00 0.00 0.00 0.00 0.00 0.00 0.00 0.00 0.00 0.00 0.00 0.00 0.00 0.00 0.00 0.00 0.00 0.00 0.00 0.00 0.00 0.00 0.00 0.00 0.00 0.00 0.00 0.00 0.00 0.00 0.00 0.00 0.00 0.01 0.00 0.00 0.00 0.00
0.00 0.00 0.00 0.00 0.00 0.00 0.00 0.00 0.00 0.00 0.00 0.00 0.00 0.00 0.00 0.00 0.00 0.00 0.00 0.00 0.00 0.00 0.00 0.00 0.00 0.00 0.00 0.00 0.00 0.00 0.00 0.00 0.00 0.00 0.00 0.00 0.00 0.00 0.01 0.03 0.02 0.01 0.01 0.00
0.00 0.00 0.00 0.00 0.00 0.00 0.00 0.00 0.00 0.00 0.00 0.00 0.00 0.00 0.00 0.00 0.00 0.00 0.00 0.00 0.00 0.00 0.00 0.00 0.00 0.00 0.00 0.00 0.00 0.00 0.00 0.00 0.00 0.00 0.00 0.00 0.01 0.01 0.02 0.05 0.03 0.02 0.01 0.00
0.00 0.00 0.00 0.00 0.00 0.00 0.00 0.00 0.00 0.00 0.00 0.00 0.00 0.00 0.00 0.00 0.00 0.00 0.00 0.00 0.00 0.00 0.00 0.00 0.00 0.00 0.00 0.00 0.00 0.00 0.00 0.00 0.00 0.00 0.00 0.00 0.00 0.01 0.02 0.02 0.02 0.02 0.01 0.01
0.00 0.00 0.00 0.00 0.00 0.00 0.00 0.00 0.00 0.00 0.00 0.00 0.00 0.00 0.00 0.00 0.00 0.00 0.00 0.00 0.00 0.00 0.00 0.00 0.00 0.00 0.00 0.00 0.00 0.00 0.00 0.00 0.00 0.00 0.00 0.00 0.00 0.01 0.01 0.01 0.01 0.01 0.01 0.01
0.00 0.00 0.00 0.00 0.00 0.00 0.00 0.00 0.00 0.00 0.00 0.00 0.00 0.00 0.00 0.00 0.00 0.00 0.00 0.00 0.00 0.00 0.00 0.00 0.00 0.00 0.00 0.00 0.00 0.00 0.00 0.00 0.00 0.00 0.00 0.00 0.00 0.01 0.01 0.01 0.00 0.00 0.00 0.00
0.00 0.00 0.00 0.00 0.00 0.00 0.00 0.00 0.00 0.00 0.00 0.00 0.00 0.00 0.00 0.00 0.00 0.00 0.00 0.00 0.00 0.00 0.00 0.00 0.00 0.00 0.00 0.00 0.00 0.00 0.00 0.00 0.00 0.00 0.00 0.00 0.00 0.00 0.01 0.02 0.01 0.00 0.00 0.00
MSLP
1010.48 1011.34 1012.13 1012.78 1013.23 1013.48 1013.54 1013.46 1013.31 1013.15 1013.01 1012.92 1012.87 1012.83 1012.78 1012.68 1012.51 1012.28 1012.01 1011.71 1011.43 1011.18 1010.98 1010.80 1010.63 1010.41 1010.13 1009.77 1009.34 1008.87 1008.41 1008.04 1007.81 1007.76 1007.90 1008.22 1008.66 1009.18 1009.69 1010.15 1010.54 1010.84 1011.09 1011.32
1011.53 1012.41 1013.18 1013.78 1014.17 1014.33 1014.31 1014.15 1013.92 1013.71 1013.54 1013.43 1013.37 1013.35 1013.30 1013.21 1013.06 1012.84 1012.57 1012.29 1012.04 1011.81 1011.63 1011.46 1011.28 1011.05 1010.72 1010.28 1009.75 1009.16 1008.57 1008.06 1007.70 1007.53 1007.58 1007.84 1008.25 1008.76 1009.30 1009.81 1010.27 1010.64 1010.97 1011.27
1012.61 1013.46 1014.18 1014.71 1015.01 1015.09 1014.97 1014.74 1014.47 1014.22 1014.04 1013.94 1013.91 1013.90 1013.88 1013.80 1013.66 1013.44 1013.18 1012.90 1012.63 1012.41 1012.21 1012.04 1011.85 1011.59 1011.22 1010.74 1010.15 1009.48 1008.81 1008.21 1007.76 1007.51 1007.48 1007.68 1008.06 1008.57 1009.13 1009.69 1010.20 1010.64 1011.03 1011.38
1013.64 1014.43 1015.08 1015.52 1015.72 1015.71 1015.53 1015.26 1014.98 1014.74 1014.59 1014.53 1014.55 1014.58 1014.60 1014.54 1014.40 1014.17 1013.88 1013.57 1013.27 1013.00 1012.77 1012.57 1012.34 1012.06 1011.67 1011.17 1010.55 1009.86 1009.16 1008.53 1008.03 1007.73 1007.67 1007.82 1008.18 1008.67 1009.24 1009.82 1010.37 1010.86 1011.29 1011.67
1014.61 1015.31 1015.85 1016.19 1016.31 1016.23 1016.02 1015.75 1015.49 1015.32 1015.24 1015.27 1015.36 1015.46 1015.52 1015.48 1015.33 1015.08 1014.74 1014.36 1013.99 1013.65 1013.35 1013.09 1012.82 1012.51 1012.11 1011.61 1011.01 1010.34 1009.66 1009.04 1008.55 1008.24 1008.15 1008.28 1008.61 1009.08 1009.63 1010.21 1010.76 1011.27 1011.70 1012.08
1015.51 1016.10 1016.53 1016.76 1016.80 1016.69 1016.49 1016.26 1016.10 1016.03 1016.07 1016.22 1016.41 1016.59 1016.69 1016.67 1016.50 1016.19 1015.77 1015.31 1014.83 1014.39 1014.00 1013.66 1013.34 1013.00 1012.60 1012.12 1011.56 1010.95 1010.32 1009.75 1009.30 1009.01 1008.92 1009.03 1009.32 1009.75 1010.26 1010.80 1011.32 1011.80 1012.21 1012.55
1016.38 1016.84 1017.15 1017.30 1017.29 1017.18 1017.02 1016.89 1016.84 1016.92 1017.12 1017.40 1017.70 1017.96 1018.10 1018.08 1017.86 1017.48 1016.97 1016.39 1015.80 1015.24 1014.74 1014.31 1013.93 1013.55 1013.15 1012.71 1012.20 1011.66 1011.11 1010.62 1010.23 1009.97 1009.89 1009.99 1010.23 1010.60 1011.04 1011.50 1011.95 1012.36 1012.71 1013.00
1017.21 1017.55 1017.77 1017.85 1017.82 1017.74 1017.66 1017.65 1017.77 1018.01 1018.36 1018.78 1019.19 1019.51 1019.67 1019.62 1019.35 1018.89 1018.27 1017.57 1016.84 1016.16 1015.55 1015.03 1014.58 1014.17 1013.77 1013.35 1012.90 1012.44 1011.98 1011.56 1011.24 1011.02 1010.95 1011.02 1011.21 1011.49 1011.83 1012.19 1012.54 1012.85 1013.12 1013.33
1017.99 1018.25 1018.39 1018.44 1018.42 1018.40 1018.43 1018.57 1018.84 1019.25 1019.75 1020.28 1020.77 1021.12 1021.28 1021.18 1020.84 1020.27 1019.54 1018.72 1017.87 1017.08 1016.36 1015.76 1015.24 1014.80 1014.39 1014.00 1013.60 1013.21 1012.82 1012.48 1012.21 1012.03 1011.96 1012.00 1012.12 1012.31 1012.54 1012.77 1013.00 1013.20 1013.37 1013.50
1018.69 1018.89 1019.00 1019.05 1019.08 1019.15 1019.30 1019.58 1020.01 1020.55 1021.17 1021.78 1022.30 1022.65 1022.76 1022.60 1022.16 1021.49 1020.65 1019.72 1018.78 1017.89 1017.10 1016.42 1015.86 1015.38 1014.97 1014.59 1014.23 1013.88 1013.56 1013.27 1013.05 1012.89 1012.82 1012.81 1012.86 1012.96 1013.07 1013.18 1013.28 1013.37 1013.44 1013.49
1019.24 1019.43 1019.55 1019.63 1019.74 1019.91 1020.18 1020.60 1021.15 1021.79 1022.48 1023.11 1023.62 1023.92 1023.96 1023.71 1023.17 1022.41 1021.48 1020.48 1019.47 1018.51 1017.67 1016.95 1016.35 1015.85 1015.42 1015.05 1014.71 1014.40 1014.11 1013.87 1013.68 1013.53 1013.44 1013.40 1013.39 1013.39 1013.39 1013.39 1013.38 1013.36 1013.35 1013.34
1019.61 1019.81 1019.97 1020.13 1020.32 1020.59 1020.98 1021.50 1022.13 1022.83 1023.53 1024.15 1024.60 1024.82 1024.77 1024.41 1023.79 1022.95 1021.96 1020.91 1019.87 1018.90 1018.04 1017.30 1016.69 1016.18 1015.75 1015.37 1015.04 1014.75 1014.49 1014.27 1014.09 1013.95 1013.85 1013.77 1013.71 1013.64 1013.56 1013.46 1013.36 1013.27 1013.19 1013.13
1019.79 1020.04 1020.25 1020.48 1020.76 1021.12 1021.60 1022.18 1022.85 1023.56 1024.23 1024.78 1025.15 1025.27 1025.11 1024.67 1023.98 1023.09 1022.09 1021.04 1020.01 1019.05 1018.21 1017.49 1016.89 1016.38 1015.95 1015.58 1015.25 1014.96 1014.72 1014.51 1014.34 1014.21 1014.10 1014.00 1013.90 1013.78 1013.64 1013.48 1013.32 1013.17 1013.05 1012.97
1019.81 1020.10 1020.38 1020.68 1021.03 1021.46 1021.98 1022.59 1023.26 1023.93 1024.53 1024.99 1025.25 1025.27 1025.02 1024.51 1023.78 1022.89 1021.91 1020.90 1019.93 1019.03 1018.24 1017.57 1016.99 1016.50 1016.08 1015.71 1015.39 1015.11 1014.87 1014.68 1014.52 1014.39 1014.28 1014.17 1014.05 1013.91 1013.73 1013.54 1013.35 1013.17 1013.02 1012.93
1019.74 1020.07 1020.39 1020.74 1021.13 1021.59 1022.12 1022.72 1023.34 1023.93 1024.44 1024.80 1024.96 1024.88 1024.57 1024.03 1023.30 1022.45 1021.53 1020.61 1019.72 1018.92 1018.21 1017.60 1017.07 1016.61 1016.20 1015.85 1015.53 1015.26 1015.03 1014.84 1014.70 1014.58 1014.48 1014.38 1014.26 1014.10 1013.92 1013.72 1013.51 1013.32 1013.17 1013.07
1019.66 1020.01 1020.35 1020.71 1021.10 1021.55 1022.06 1022.59 1023.13 1023.63 1024.03 1024.28 1024.35 1024.22 1023.87 1023.34 1022.66 1021.88 1021.07 1020.26 1019.49 1018.80 1018.18 1017.64 1017.17 1016.75 1016.37 1016.03 1015.72 1015.46 1015.24 1015.07 1014.94 1014.85 1014.76 1014.67 1014.56 1014.42 1014.24 1014.04 1013.84 1013.65 1013.50 1013.41
1019.64 1019.97 1020.30 1020.64 1021.01 1021.41 1021.84 1022.29 1022.73 1023.12 1023.41 1023.57 1023.57 1023.40 1023.06 1022.57 1021.97 1021.31 1020.62 1019.94 1019.31 1018.73 1018.21 1017.75 1017.33 1016.94 1016.59 1016.26 1015.97 1015.72 1015.53 1015.37 1015.27 1015.20 1015.13 1015.07 1014.98 1014.85 1014.70 1014.51 1014.32 1014.14 1014.00 1013.90
1019.69 1019.99 1020.28 1020.57 1020.87 1021.20 1021.54 1021.89 1022.21 1022.49 1022.69 1022.78 1022.74 1022.56 1022.26 1021.84 1021.35 1020.81 1020.26 1019.72 1019.22 1018.75 1018.32 1017.92 1017.54 1017.19 1016.85 1016.54 1016.26 1016.03 1015.85 1015.72 1015.64 1015.60 1015.56 1015.53 1015.46 1015.36 1015.23 1015.07 1014.90 1014.74 1014.60 1014.50
1019.78 1020.04 1020.27 1020.50 1020.73 1020.96 1021.20 1021.44 1021.67 1021.85 1021.97 1022.01 1021.96 1021.80 1021.56 1021.23 1020.85 1020.44 1020.02 1019.61 1019.21 1018.83 1018.47 1018.11 1017.77 1017.43 1017.11 1016.80 1016.54 1016.32 1016.16 1016.06 1016.01 1015.99 1015.98 1015.98 1015.95 1015.88 1015.78 1015.65 1015.50 1015.36 1015.24 1015.14
1019.83 1020.04 1020.22 1020.39 1020.55 1020.70 1020.86 1021.01 1021.15 1021.26 1021.33 1021.34 1021.29 1021.18 1021.00 1020.77 1020.50 1020.21 1019.90 1019.59 1019.27 1018.95 1018.63 1018.30 1017.96 1017.63 1017.30 1017.00 1016.74 1016.53 1016.39 1016.31 1016.29 1016.30 1016.33 1016.36 1016.37 1016.34 1016.28 1016.18 1016.07 1015.95 1015.85 1015.76
1019.76 1019.93 1020.07 1020.19 1020.30 1020.40 1020.49 1020.58 1020.67 1020.74 1020.79 1020.80 1020.78 1020.71 1020.60 1020.46 1020.28 1020.08 1019.86 1019.62 1019.36 1019.08 1018.77 1018.44 1018.10 1017.75 1017.41 1017.10 1016.84 1016.64 1016.51 1016.45 1016.45 1016.50 1016.57 1016.64 1016.68 1016.70 1016.69 1016.64 1016.56 1016.48 1016.40 1016.33
1019.49 1019.64 1019.76 1019.86 1019.94 1020.02 1020.09 1020.16 1020.23 1020.30 1020.35 1020.39 1020.40 1020.38 1020.34 1020.27 1020.17 1020.04 1019.88 1019.68 1019.45 1019.18 1018.87 1018.53 1018.16 1017.79 1017.44 1017.11 1016.84 1016.64 1016.52 1016.48 1016.50 1016.57 1016.68 1016.79 1016.89 1016.95 1016.99 1017.00 1016.97 1016.94 1016.89 1016.84
1019.02 1019.15 1019.26 1019.36 1019.46 1019.54 1019.63 1019.72 1019.82 1019.91 1019.99 1020.07 1020.13 1020.17 1020.18 1020.17 1020.12 1020.04 1019.91 1019.74 1019.52 1019.25 1018.93 1018.57 1018.19 1017.79 1017.42 1017.08 1016.79 1016.59 1016.47 1016.43 1016.47 1016.56 1016.70 1016.85 1016.99 1017.12 1017.22 1017.28 1017.32 1017.33 1017.33 1017.31
1018.36 1018.48 1018.60 1018.72 1018.85 1018.98 1019.12 1019.26 1019.41 1019.55 1019.69 1019.82 1019.93 1020.02 1020.09 1020.12 1020.11 1020.05 1019.95 1019.79 1019.58 1019.31 1018.98 1018.61 1018.21 1017.80 1017.41 1017.05 1016.76 1016.54 1016.41 1016.37 1016.41 1016.52 1016.68 1016.86 1017.05 1017.24 1017.39 1017.52 1017.62 1017.69 1017.74 1017.75
1017.62 1017.72 1017.84 1017.99 1018.16 1018.34 1018.55 1018.77 1018.99 1019.21 1019.41 1019.60 1019.77 1019.91 1020.01 1020.07 1020.09 1020.06 1019.98 1019.83 1019.63 1019.36 1019.04 1018.67 1018.27 1017.86 1017.46 1017.10 1016.79 1016.56 1016.42 1016.36 1016.40 1016.51 1016.68 1016.89 1017.11 1017.34 1017.55 1017.74 1017.90 1018.03 1018.12 1018.17
1016.88 1016.94 1017.06 1017.23 1017.44 1017.69 1017.97 1018.27 1018.57 1018.87 1019.14 1019.39 1019.61 1019.79 1019.92 1020.01 1020.05 1020.04 1019.98 1019.85 1019.67 1019.43 1019.13 1018.78 1018.41 1018.01 1017.62 1017.25 1016.94 1016.69 1016.53 1016.45 1016.47 1016.56 1016.73 1016.95 1017.19 1017.46 1017.71 1017.95 1018.16 1018.34 1018.47 1018.56
Thickness
5792 5779 5762 5763 5767 5763 5759 5754 5752 5758 5764 5755 5750 5753 5755 5757 5758 5758 5759 5760 5761 5763 5771 5776 5780 5784 5787 5791 5793 5798 5799 5801 5803 5802 5799 5795 5790 5789 5788 5787 5783 5779 5776 5773
5775 5756 5763 5768 5765 5758 5750 5742 5743 5751 5758 5748 5740 5740 5748 5747 5745 5746 5745 5745 5746 5748 5752 5757 5762 5766 5769 5774 5780 5786 5791 5794 5796 5798 5797 5795 5790 5786 5784 5782 5778 5774 5770 5767
5758 5752 5760 5753 5747 5736 5729 5725 5721 5722 5733 5737 5728 5722 5733 5739 5736 5735 5735 5735 5735 5736 5737 5741 5746 5750 5755 5760 5766 5772 5777 5783 5790 5793 5792 5787 5780 5777 5773 5770 5767 5765 5763 5760
5754 5750 5743 5735 5727 5718 5708 5718 5712 5709 5702 5701 5711 5693 5718 5725 5715 5712 5712 5716 5719 5723 5727 5730 5734 5737 5742 5747 5754 5759 5766 5772 5779 5784 5783 5779 5771 5763 5763 5759 5757 5754 5753 5752
5729 5730 5721 5711 5708 5710 5706 5712 5706 5701 5691 5685 5694 5684 5693 5693 5677 5676 5684 5694 5704 5711 5716 5719 5723 5726 5731 5736 5741 5746 5753 5760 5767 5772 5774 5771 5765 5760 5756 5752 5746 5742 5740 5741
5732 5729 5717 5704 5709 5712 5709 5706 5705 5703 5688 5664 5673 5668 5656 5647 5648 5655 5663 5676 5687 5696 5702 5706 5710 5714 5718 5723 5729 5735 5741 5747 5754 5759 5761 5760 5755 5750 5744 5739 5734 5731 5729 5729
5720 5713 5710 5704 5694 5696 5695 5681 5670 5665 5659 5653 5659 5646 5623 5629 5637 5642 5647 5658 5669 5679 5686 5690 5694 5697 5702 5708 5714 5721 5727 5733 5738 5742 5743 5743 5740 5737 5732 5727 5724 5719 5717 5717
5714 5695 5694 5692 5682 5672 5677 5671 5647 5632 5637 5645 5654 5627 5614 5620 5627 5635 5642 5649 5656 5663 5670 5675 5679 5682 5687 5692 5699 5706 5711 5716 5721 5723 5724 5724 5723 5720 5717 5715 5712 5708 5707 5708
5705 5689 5694 5690 5686 5673 5661 5655 5658 5645 5645 5642 5639 5621 5618 5617 5617 5622 5630 5636 5641 5648 5655 5660 5665 5668 5672 5677 5683 5689 5694 5699 5702 5704 5705 5705 5705 5704 5702 5701 5700 5698 5698 5699
5710 5693 5687 5687 5682 5672 5661 5653 5647 5634 5623 5619 5627 5606 5589 5596 5600 5607 5614 5620 5627 5635 5642 5647 5652 5656 5660 5664 5669 5674 5679 5682 5685 5687 5689 5689 5689 5690 5690 5690 5689 5688 5688 5689
5708 5698 5685 5677 5660 5650 5649 5644 5637 5633 5623 5603 5597 5590 5584 5584 5590 5596 5603 5610 5617 5624 5632 5639 5644 5649 5652 5656 5659 5662 5666 5669 5671 5674 5675 5676 5677 5678 5679 5679 5679 5679 5680 5680
5706 5696 5684 5667 5667 5663 5649 5640 5633 5617 5607 5599 5587 5582 5582 5583 5587 5592 5598 5605 5612 5619 5626 5633 5639 5643 5647 5649 5651 5654 5656 5659 5661 5664 5666 5666 5668 5670 5670 5671 5672 5673 5674 5675
5694 5692 5674 5656 5657 5656 5646 5641 5636 5627 5610 5591 5580 5575 5582 5584 5588 5593 5599 5606 5612 5619 5625 5630 5636 5640 5642 5644 5647 5649 5651 5653 5655 5658 5659 5661 5662 5664 5665 5666 5668 5670 5671 5673
5691 5689 5669 5651 5642 5646 5640 5636 5633 5624 5603 5589 5579 5578 5585 5589 5592 5599 5605 5610 5617 5623 5628 5632 5636 5640 5643 5644 5646 5648 5649 5652 5654 5656 5657 5658 5660 5662 5663 5665 5667 5669 5670 5671
5703 5687 5675 5666 5662 5657 5646 5637 5631 5621 5611 5598 5591 5592 5596 5600 5602 5607 5613 5619 5624 5629 5634 5637 5641 5644 5647 5648 5649 5650 5651 5654 5656 5657 5657 5659 5661 5662 5663 5664 5665 5666 5667 5669
5704 5690 5681 5669 5667 5663 5651 5644 5636 5628 5622 5614 5611 5607 5616 5616 5617 5619 5622 5627 5630 5633 5637 5642 5646 5649 5651 5652 5653 5653 5654 5656 5657 5657 5657 5659 5660 5660 5661 5661 5662 5662 5661 5661
5703 5694 5682 5675 5673 5665 5650 5649 5641 5634 5631 5624 5616 5619 5628 5626 5625 5626 5629 5632 5634 5638 5641 5645 5648 5651 5654 5656 5657 5656 5656 5657 5656 5656 5656 5656 5656 5656 5656 5657 5656 5655 5654 5652
5703 5695 5689 5685 5677 5654 5655 5664 5654 5644 5640 5637 5636 5638 5638 5636 5636 5637 5638 5637 5638 5641 5643 5647 5650 5652 5656 5660 5661 5660 5658 5656 5654 5653 5653 5653 5652 5652 5652 5651 5650 5649 5648 5645
5709 5697 5690 5687 5669 5665 5663 5666 5662 5653 5648 5651 5647 5649 5651 5651 5646 5641 5645 5646 5645 5645 5647 5650 5653 5654 5656 5659 5661 5660 5657 5654 5652 5651 5650 5651 5650 5648 5647 5646 5645 5643 5641 5639
5712 5704 5692 5689 5677 5669 5673 5679 5677 5663 5650 5661 5659 5656 5656 5653 5638 5638 5649 5651 5651 5651 5652 5653 5656 5657 5657 5660 5662 5660 5656 5653 5650 5650 5650 5650 5649 5647 5644 5642 5639 5637 5635 5632
5712 5705 5695 5693 5687 5683 5686 5684 5677 5655 5656 5668 5666 5662 5658 5651 5648 5652 5656 5655 5655 5656 5656 5657 5659 5659 5660 5663 5663 5661 5658 5654 5653 5653 5651 5650 5648 5646 5642 5638 5634 5631 5628 5624
5718 5712 5707 5700 5691 5681 5692 5684 5676 5674 5679 5676 5670 5666 5661 5661 5661 5661 5660 5659 5659 5659 5660 5660 5660 5661 5665 5667 5665 5662 5659 5660 5659 5656 5654 5651 5649 5645 5641 5635 5630 5625 5620 5616
5725 5722 5713 5709 5698 5704 5701 5697 5694 5691 5686 5680 5674 5670 5667 5666 5664 5664 5664 5663 5663 5663 5663 5664 5664 5665 5669 5670 5669 5664 5664 5664 5662 5659 5656 5653 5649 5644 5638 5632 5625 5619 5614 5608
5740 5733 5719 5714 5714 5711 5708 5706 5698 5694 5691 5684 5679 5675 5672 5668 5667 5667 5667 5666 5665 5666 5667 5668 5668 5668 5670 5673 5674 5671 5670 5668 5665 5661 5658 5654 5649 5643 5636 5630 5623 5615 5608 5603
5739 5730 5722 5718 5723 5717 5712 5709 5704 5698 5694 5688 5683 5679 5675 5672 5670 5670 5669 5668 5668 5669 5671 5671 5670 5670 5673 5676 5676 5674 5672 5670 5667 5664 5660 5655 5649 5643 5636 5627 5618 5613 5604 5599
5749 5737 5726 5725 5734 5723 5717 5716 5712 5703 5697 5692 5686 5681 5679 5676 5672 5672 5671 5670 5671 5672 5673 5671 5672 5673 5675 5676 5676 5675 5674 5673 5669 5665 5660 5655 5650 5644 5637 5628 5619 5612 5608 5602